Regional Weather Roundup
Issued by NWS

Home | Current Version | Previous Version | Graphics & Text | Print | Product List | Glossary On
Versions: 1 2 3 4 5 6 7 8 9 10 11 12 13 14 15 16 17 18 19 20 21 22 23 24 25 26 27 28 29 30 31 32 33 34 35 36 37 38 39 40 41 42 43 44 45 46 47 48 49 50
000
ASUS43 KLMK 270110
RWRKY
KENTUCKY REGIONAL WEATHER ROUNDUP
NATIONAL WEATHER SERVICE LOUISVILLE KY
800 PM EST WED NOV 26 2014

NOTE "FAIR" INDICATES FEW OR NO CLOUDS BELOW 12,000 FEET
WITH NO SIGNIFICANT WEATHER AND/OR OBSTRUCTIONS TO VISIBILITY.

KYZ001>023-026-027-061>063-070>075-270200-
WESTERN AND SOUTH CENTRAL KENTUCKY

CITY           SKY/WX    TMP DP  RH WIND       PRES   REMARKS
PADUCAH        CLOUDY    38  35  89 W12       30.03R WCI  30
HENDERSON      CLOUDY    32  28  86 E5        30.04F WCI  27
OWENSBORO      LGT RAIN  36  34  92 S8        30.06R WCI  30
HOPKINSVILLE   DRIZZLE   39  39 100 CALM      30.01F
BOWLING GREEN  LGT RAIN  40  34  79 SW5       30.05R
GLASGOW        RAIN      40  32  73 W12G21    30.04R WCI  33
$$

KYZ024-025-028>034-038-045-046-053-270200-
NORTH CENTRAL KENTUCKY

CITY           SKY/WX    TMP DP  RH WIND       PRES   REMARKS
LOUISVILLE/SDF CLOUDY    40  29  64 N7        30.03R
LOUISVILLE/LOU CLOUDY    39  28  64 CALM      30.03S
FORT KNOX      CLOUDY    36  28  73 W6        30.02R WCI  31
$$

KYZ035>037-039>044-047>052-055>060-089>105-270200-
NORTHEAST KENTUCKY

CITY           SKY/WX    TMP DP  RH WIND       PRES   REMARKS
LEXINGTON      CLOUDY    36  29  75 NE3       30.01F
COVINGTON      CLOUDY    35  25  66 NE7       30.03S WCI  29
FRANKFORT      CLOUDY    36  29  75 CALM      30.01S
$$

KYZ054-064>069-076>088-106>120-270200-
SOUTHEAST KENTUCKY

CITY           SKY/WX    TMP DP  RH WIND       PRES   REMARKS
JACKSON        CLOUDY    40  27  59 CALM      29.99F
LONDON         CLOUDY    41  25  53 CALM      29.99F
SOMERSET       CLOUDY    37  28  70 CALM      30.01F
MIDDLESBORO    NOT AVBL
MONTICELLO     CLOUDY    38  30  73 CALM      30.01F
$$




USA.gov is the U.S. government's official web portal to all federal, state and local government web resources and services.